Time,TemperatureF,DewpointF,PressureIn,WindDirection,WindDirectionDegrees,WindSpeedMPH,WindSpeedGustMPH,Humidity,HourlyPrecipIn,Conditions,Clouds,dailyrainin,SoftwareType,DateUTC
2013-01-10 00:02:00,54.0,53.0,30.09,East,82,5.0,12.0,97,0.04,,,0.67,,2013-01-10 06:02:00,
2013-01-10 00:12:00,54.0,53.0,30.09,East,82,5.0,12.0,97,0.04,,,0.67,,2013-01-10 06:12:00,
2013-01-10 00:22:00,54.0,53.0,30.09,ESE,122,4.0,9.0,97,0.06,,,0.70,,2013-01-10 06:22:00,
2013-01-10 00:32:00,54.0,53.0,30.08,ESE,105,4.0,7.0,97,0.06,,,0.69,,2013-01-10 06:32:00,
2013-01-10 00:42:00,54.0,53.0,30.08,ESE,105,4.0,7.0,97,0.06,,,0.69,,2013-01-10 06:42:00,
2013-01-10 00:52:00,54.0,53.0,30.07,SSE,150,5.0,10.0,97,0.09,,,0.75,,2013-01-10 06:52:00,
2013-01-10 01:02:00,54.0,53.0,30.06,East,96,5.0,10.0,97,0.09,,,0.76,,2013-01-10 07:02:00,
2013-01-10 01:12:00,54.0,53.0,30.06,East,96,5.0,10.0,97,0.09,,,0.76,,2013-01-10 07:12:00,
2013-01-10 01:22:00,54.0,53.0,30.06,East,83,3.0,9.0,97,0.07,,,0.76,,2013-01-10 07:22:00,
2013-01-10 01:32:00,54.0,53.0,30.05,ESE,120,5.0,13.0,97,0.07,,,0.76,,2013-01-10 07:32:00,
2013-01-10 01:42:00,54.0,53.0,30.05,ESE,120,5.0,13.0,97,0.07,,,0.76,,2013-01-10 07:42:00,
2013-01-10 01:52:00,54.0,53.0,30.04,ESE,105,6.0,17.0,97,0.01,,,0.76,,2013-01-10 07:52:00,
2013-01-10 02:02:00,54.0,53.0,30.04,ENE,68,4.0,10.0,98,0.00,,,0.76,,2013-01-10 08:02:00,
2013-01-10 02:12:00,54.0,53.0,30.04,ENE,68,4.0,10.0,98,0.00,,,0.76,,2013-01-10 08:12:00,
2013-01-10 02:22:00,54.0,53.0,30.03,ENE,73,4.0,11.0,98,0.03,,,0.79,,2013-01-10 08:22:00,
2013-01-10 02:32:00,54.0,53.0,30.03,ESE,116,5.0,9.0,98,0.03,,,0.78,,2013-01-10 08:32:00,
2013-01-10 02:42:00,54.0,53.0,30.03,ESE,116,5.0,9.0,98,0.03,,,0.78,,2013-01-10 08:42:00,
2013-01-10 02:52:00,54.0,53.0,30.02,SE,129,4.0,9.0,98,0.04,,,0.79,,2013-01-10 08:52:00,
2013-01-10 03:02:00,54.0,53.0,30.01,SE,143,5.0,13.0,98,0.05,,,0.80,,2013-01-10 09:02:00,
2013-01-10 03:12:00,54.0,53.0,30.01,SE,143,5.0,13.0,98,0.05,,,0.80,,2013-01-10 09:12:00,
2013-01-10 03:22:00,54.0,53.0,30.00,East,101,4.0,12.0,98,0.03,,,0.81,,2013-01-10 09:22:00,
2013-01-10 03:32:00,54.0,53.0,30.00,ESE,109,4.0,8.0,98,0.03,,,0.81,,2013-01-10 09:32:00,
2013-01-10 03:42:00,54.0,53.0,30.00,ESE,109,4.0,8.0,98,0.03,,,0.81,,2013-01-10 09:42:00,
2013-01-10 03:52:00,54.0,53.0,30.00,ESE,109,4.0,8.0,98,0.03,,,0.81,,2013-01-10 09:52:00,
2013-01-10 04:03:00,54.0,53.0,29.99,ENE,65,5.0,9.0,98,0.01,,,0.81,,2013-01-10 10:03:00,
2013-01-10 04:12:00,54.0,53.0,29.99,ENE,65,5.0,9.0,98,0.01,,,0.81,,2013-01-10 10:12:00,
2013-01-10 04:22:00,54.0,53.0,29.98,ESE,112,5.0,12.0,98,0.00,,,0.81,,2013-01-10 10:22:00,
2013-01-10 04:32:00,54.0,53.0,29.98,NE,46,4.0,13.0,98,0.01,,,0.82,,2013-01-10 10:32:00,
2013-01-10 04:42:00,54.0,53.0,29.98,NE,46,4.0,13.0,98,0.01,,,0.82,,2013-01-10 10:42:00,
2013-01-10 04:52:00,54.0,53.0,29.97,SSW,210,2.0,11.0,98,0.01,,,0.82,,2013-01-10 10:52:00,
2013-01-10 05:02:00,53.0,52.0,29.97,East,99,3.0,8.0,98,0.02,,,0.83,,2013-01-10 11:02:00,
2013-01-10 05:12:00,53.0,52.0,29.97,East,99,3.0,8.0,98,0.02,,,0.83,,2013-01-10 11:12:00,
2013-01-10 05:22:00,53.0,52.0,29.96,East,98,4.0,11.0,98,0.03,,,0.84,,2013-01-10 11:22:00,
2013-01-10 05:33:00,53.0,52.0,29.96,SSE,150,2.0,8.0,98,0.02,,,0.84,,2013-01-10 11:33:00,
2013-01-10 05:42:00,53.0,52.0,29.96,SSE,150,2.0,8.0,98,0.02,,,0.84,,2013-01-10 11:42:00,
2013-01-10 05:52:00,53.0,52.0,29.95,NE,54,2.0,8.0,98,0.02,,,0.84,,2013-01-10 11:52:00,
2013-01-10 06:03:00,53.0,52.0,29.95,West,273,3.0,6.0,98,0.01,,,0.84,,2013-01-10 12:03:00,
2013-01-10 06:12:00,53.0,52.0,29.95,West,273,3.0,6.0,98,0.01,,,0.84,,2013-01-10 12:12:00,
2013-01-10 06:22:00,53.0,52.0,29.94,SE,129,1.0,6.0,98,0.01,,,0.85,,2013-01-10 12:22:00,
2013-01-10 06:33:00,53.0,52.0,29.94,SE,131,0.0,3.0,98,0.01,,,0.85,,2013-01-10 12:33:00,
2013-01-10 06:42:00,53.0,52.0,29.94,SE,131,0.0,3.0,98,0.01,,,0.85,,2013-01-10 12:42:00,
2013-01-10 06:52:00,53.0,52.0,29.95,SSE,154,0.0,1.0,98,0.01,,,0.85,,2013-01-10 12:52:00,
2013-01-10 07:02:00,53.0,52.0,29.96,SE,129,0.0,3.0,98,0.02,,,0.86,,2013-01-10 13:02:00,
2013-01-10 07:12:00,53.0,52.0,29.96,SE,129,0.0,3.0,98,0.02,,,0.86,,2013-01-10 13:12:00,
2013-01-10 07:22:00,54.0,53.0,29.96,SE,137,0.0,3.0,98,0.01,,,0.86,,2013-01-10 13:22:00,
2013-01-10 07:32:00,54.0,54.0,29.95,ESE,117,2.0,6.0,99,0.02,,,0.85,,2013-01-10 13:32:00,
2013-01-10 07:42:00,54.0,54.0,29.95,ESE,117,2.0,6.0,99,0.02,,,0.85,,2013-01-10 13:42:00,
2013-01-10 07:52:00,54.0,54.0,29.95,South,191,0.0,5.0,99,0.02,,,0.85,,2013-01-10 13:52:00,
2013-01-10 08:02:00,54.0,54.0,29.94,SE,141,0.0,4.0,99,0.01,,,0.85,,2013-01-10 14:02:00,
2013-01-10 08:12:00,54.0,54.0,29.94,SE,141,0.0,4.0,99,0.01,,,0.85,,2013-01-10 14:12:00,
2013-01-10 08:22:00,54.0,54.0,29.95,WSW,249,1.0,4.0,99,0.01,,,0.85,,2013-01-10 14:22:00,
2013-01-10 08:33:00,54.0,54.0,29.94,ESE,123,1.0,5.0,99,0.00,,,0.85,,2013-01-10 14:33:00,
2013-01-10 08:43:00,54.0,54.0,29.94,ESE,123,1.0,5.0,99,0.00,,,0.85,,2013-01-10 14:43:00,
2013-01-10 08:53:00,54.0,54.0,29.94,ESE,108,1.0,4.0,99,0.00,,,0.85,,2013-01-10 14:53:00,
2013-01-10 09:03:00,54.0,54.0,29.95,SSE,158,2.0,4.0,99,0.00,,,0.85,,2013-01-10 15:03:00,
2013-01-10 09:12:00,54.0,54.0,29.95,SSE,158,2.0,4.0,99,0.00,,,0.85,,2013-01-10 15:12:00,
2013-01-10 09:22:00,55.0,55.0,29.93,SSE,162,0.0,4.0,99,0.00,,,0.85,,2013-01-10 15:22:00,
2013-01-10 09:33:00,55.0,55.0,29.93,South,179,2.0,5.0,99,0.00,,,0.84,,2013-01-10 15:33:00,
2013-01-10 09:43:00,55.0,55.0,29.93,South,179,2.0,5.0,99,0.00,,,0.84,,2013-01-10 15:43:00,
2013-01-10 09:53:00,55.0,54.0,29.92,SSE,166,0.0,6.0,98,0.00,,,0.84,,2013-01-10 15:53:00,
2013-01-10 10:02:00,55.0,54.0,29.93,SSW,212,1.0,2.0,98,0.00,,,0.84,,2013-01-10 16:02:00,
2013-01-10 10:13:00,55.0,54.0,29.93,SSW,212,1.0,2.0,98,0.00,,,0.84,,2013-01-10 16:13:00,
2013-01-10 10:23:00,55.0,54.0,29.93,SW,229,2.0,6.0,98,0.00,,,0.84,,2013-01-10 16:23:00,
2013-01-10 10:33:00,55.0,54.0,29.93,South,185,1.0,5.0,98,0.00,,,0.82,,2013-01-10 16:33:00,
2013-01-10 10:43:00,55.0,54.0,29.93,South,185,1.0,5.0,98,0.00,,,0.82,,2013-01-10 16:43:00,
2013-01-10 10:52:00,56.0,55.0,29.94,SSW,198,1.0,5.0,98,0.00,,,0.82,,2013-01-10 16:52:00,
2013-01-10 11:03:00,56.0,55.0,29.94,WSW,245,1.0,6.0,98,0.00,,,0.82,,2013-01-10 17:03:00,
2013-01-10 11:12:00,56.0,55.0,29.94,WSW,245,1.0,6.0,98,0.00,,,0.82,,2013-01-10 17:12:00,
2013-01-10 11:22:00,57.0,56.0,29.93,South,177,2.0,5.0,95,0.00,,,0.82,,2013-01-10 17:22:00,
2013-01-10 11:33:00,57.0,55.0,29.93,SSW,192,2.0,7.0,93,0.00,,,0.71,,2013-01-10 17:33:00,
2013-01-10 11:42:00,57.0,55.0,29.93,SSW,192,2.0,7.0,93,0.00,,,0.71,,2013-01-10 17:42:00,
2013-01-10 11:53:00,57.0,54.0,29.93,South,177,3.0,8.0,91,0.00,,,0.71,,2013-01-10 17:53:00,
2013-01-10 12:03:00,59.0,56.0,29.91,SE,127,5.0,11.0,89,0.00,,,0.71,,2013-01-10 18:03:00,
2013-01-10 12:12:00,59.0,55.0,29.91,SSW,201,3.0,12.0,86,0.00,,,0.71,,2013-01-10 18:12:00,
2013-01-10 12:23:00,59.0,55.0,29.91,SSW,201,3.0,12.0,86,0.00,,,0.71,,2013-01-10 18:23:00,
2013-01-10 12:33:00,58.0,53.0,29.89,SSW,196,5.0,12.0,82,0.00,,,0.56,,2013-01-10 18:33:00,
2013-01-10 12:43:00,58.0,53.0,29.89,SSW,196,5.0,12.0,82,0.00,,,0.56,,2013-01-10 18:43:00,
2013-01-10 12:52:00,58.0,53.0,29.89,SSW,196,5.0,12.0,82,0.00,,,0.56,,2013-01-10 18:52:00,
2013-01-10 13:03:00,56.0,51.0,29.89,SSW,207,4.0,8.0,84,0.00,,,0.56,,2013-01-10 19:03:00,
2013-01-10 13:13:00,55.0,50.0,29.89,SW,225,4.0,11.0,83,0.00,,,0.56,,2013-01-10 19:13:00,
2013-01-10 13:23:00,55.0,50.0,29.89,SW,225,4.0,11.0,83,0.00,,,0.56,,2013-01-10 19:23:00,
2013-01-10 13:33:00,55.0,50.0,29.88,South,180,5.0,12.0,82,0.00,,,0.50,,2013-01-10 19:33:00,
2013-01-10 13:43:00,55.0,50.0,29.88,South,180,5.0,12.0,82,0.00,,,0.50,,2013-01-10 19:43:00,
2013-01-10 13:52:00,55.0,50.0,29.89,SSW,200,5.0,10.0,83,0.00,,,0.50,,2013-01-10 19:52:00,
2013-01-10 14:03:00,54.0,49.0,29.89,SSW,210,7.0,13.0,83,0.00,,,0.50,,2013-01-10 20:03:00,
2013-01-10 14:12:00,54.0,49.0,29.89,SSW,210,7.0,13.0,83,0.00,,,0.50,,2013-01-10 20:12:00,
2013-01-10 14:23:00,54.0,50.0,29.89,SW,225,4.0,8.0,85,0.00,,,0.50,,2013-01-10 20:23:00,
2013-01-10 14:33:00,53.0,49.0,29.89,South,181,4.0,12.0,87,0.00,,,0.46,,2013-01-10 20:33:00,
2013-01-10 14:42:00,53.0,49.0,29.89,South,181,4.0,12.0,87,0.00,,,0.46,,2013-01-10 20:42:00,
2013-01-10 14:53:00,53.0,50.0,29.88,SSE,165,4.0,10.0,89,0.00,,,0.46,,2013-01-10 20:53:00,
2013-01-10 15:03:00,53.0,50.0,29.89,South,191,2.0,7.0,90,0.00,,,0.46,,2013-01-10 21:03:00,
2013-01-10 15:12:00,53.0,50.0,29.89,South,191,2.0,7.0,90,0.00,,,0.46,,2013-01-10 21:12:00,
2013-01-10 15:23:00,52.0,50.0,29.90,SW,236,2.0,7.0,92,0.04,,,0.50,,2013-01-10 21:23:00,
2013-01-10 15:33:00,52.0,50.0,29.91,SSW,211,1.0,3.0,94,0.05,,,0.47,,2013-01-10 21:33:00,
2013-01-10 15:42:00,52.0,50.0,29.91,SSW,211,1.0,3.0,94,0.05,,,0.47,,2013-01-10 21:42:00,
2013-01-10 15:53:00,52.0,50.0,29.91,SSW,212,1.0,6.0,94,0.05,,,0.47,,2013-01-10 21:53:00,
2013-01-10 16:03:00,52.0,50.0,29.91,South,172,1.0,4.0,94,0.05,,,0.47,,2013-01-10 22:03:00,
2013-01-10 16:12:00,52.0,50.0,29.91,SSW,208,1.0,3.0,94,0.01,,,0.47,,2013-01-10 22:12:00,
2013-01-10 16:25:00,52.0,50.0,29.91,SSW,208,1.0,3.0,94,0.01,,,0.47,,2013-01-10 22:25:00,
2013-01-10 16:33:00,52.0,50.0,29.91,South,186,1.0,4.0,94,0.00,,,0.46,,2013-01-10 22:33:00,
2013-01-10 16:43:00,52.0,50.0,29.91,South,186,1.0,4.0,94,0.00,,,0.46,,2013-01-10 22:43:00,
2013-01-10 17:02:00,52.0,50.0,29.91,South,183,1.0,4.0,94,0.00,,,0.46,,2013-01-10 23:02:00,
2013-01-10 17:12:00,52.0,50.0,29.91,SSE,152,1.0,3.0,93,0.00,,,0.46,,2013-01-10 23:12:00,
2013-01-10 17:23:00,52.0,50.0,29.91,SSE,152,1.0,3.0,93,0.00,,,0.46,,2013-01-10 23:23:00,
2013-01-10 17:33:00,52.0,50.0,29.91,SSW,206,1.0,6.0,92,0.00,,,0.45,,2013-01-10 23:33:00,
2013-01-10 17:43:00,52.0,50.0,29.91,SSW,206,1.0,6.0,92,0.00,,,0.45,,2013-01-10 23:43:00,
2013-01-10 17:53:00,52.0,50.0,29.91,SSE,167,2.0,5.0,92,0.00,,,0.45,,2013-01-10 23:53:00,
2013-01-10 18:02:00,51.0,48.0,29.92,SSW,193,2.0,4.0,91,0.00,,,0.45,,2013-01-11 00:02:00,
2013-01-10 18:12:00,51.0,48.0,29.92,SSW,193,2.0,4.0,91,0.00,,,0.45,,2013-01-11 00:12:00,
2013-01-10 18:23:00,52.0,49.0,29.93,SSW,198,3.0,6.0,90,0.00,,,0.45,,2013-01-11 00:23:00,
2013-01-10 18:33:00,51.0,48.0,29.93,SSW,211,2.0,5.0,90,0.00,,,0.37,,2013-01-11 00:33:00,
2013-01-10 18:42:00,51.0,48.0,29.93,SSW,211,2.0,5.0,90,0.00,,,0.37,,2013-01-11 00:42:00,
2013-01-10 18:52:00,51.0,48.0,29.93,SSW,209,3.0,8.0,89,0.00,,,0.37,,2013-01-11 00:52:00,
2013-01-10 19:03:00,51.0,48.0,29.93,SW,222,2.0,6.0,89,0.00,,,0.37,,2013-01-11 01:03:00,
2013-01-10 19:12:00,51.0,48.0,29.93,SSW,203,2.0,5.0,90,0.00,,,0.37,,2013-01-11 01:12:00,
2013-01-10 19:23:00,51.0,48.0,29.93,SSW,203,2.0,5.0,90,0.00,,,0.37,,2013-01-11 01:23:00,
2013-01-10 19:33:00,51.0,48.0,29.93,South,191,2.0,6.0,90,0.00,,,0.32,,2013-01-11 01:33:00,
2013-01-10 19:43:00,51.0,48.0,29.93,South,191,2.0,6.0,90,0.00,,,0.32,,2013-01-11 01:43:00,
2013-01-10 19:52:00,51.0,48.0,29.93,SSE,165,2.0,7.0,90,0.00,,,0.32,,2013-01-11 01:52:00,
2013-01-10 20:03:00,51.0,48.0,29.93,SSE,158,2.0,8.0,89,0.00,,,0.32,,2013-01-11 02:03:00,
2013-01-10 20:13:00,51.0,48.0,29.93,SSE,158,2.0,8.0,89,0.00,,,0.32,,2013-01-11 02:13:00,
2013-01-10 20:23:00,51.0,48.0,29.93,WSW,244,2.0,5.0,89,0.00,,,0.32,,2013-01-11 02:23:00,
2013-01-10 20:33:00,51.0,48.0,29.93,WSW,244,2.0,5.0,89,0.00,,,0.32,,2013-01-11 02:33:00,
2013-01-10 20:43:00,51.0,48.0,29.93,WSW,244,2.0,5.0,89,0.00,,,0.32,,2013-01-11 02:43:00,
2013-01-10 20:53:00,51.0,48.0,29.94,SSW,205,1.0,4.0,90,0.00,,,0.31,,2013-01-11 02:53:00,
2013-01-10 21:02:00,51.0,48.0,29.93,SW,221,2.0,5.0,90,0.00,,,0.31,,2013-01-11 03:02:00,
2013-01-10 21:12:00,51.0,48.0,29.93,SW,221,2.0,5.0,90,0.00,,,0.31,,2013-01-11 03:12:00,
2013-01-10 21:23:00,51.0,48.0,29.93,SSW,201,1.0,4.0,90,0.00,,,0.31,,2013-01-11 03:23:00,
2013-01-10 21:33:00,51.0,48.0,29.93,SW,217,2.0,5.0,90,0.00,,,0.31,,2013-01-11 03:33:00,
2013-01-10 21:43:00,51.0,48.0,29.93,SW,217,2.0,5.0,90,0.00,,,0.31,,2013-01-11 03:43:00,
2013-01-10 21:53:00,50.0,47.0,29.93,SSW,200,1.0,3.0,90,0.00,,,0.31,,2013-01-11 03:53:00,
2013-01-10 22:02:00,50.0,47.0,29.93,SW,222,1.0,4.0,91,0.00,,,0.31,,2013-01-11 04:02:00,
2013-01-10 22:12:00,50.0,47.0,29.93,SW,222,1.0,4.0,91,0.00,,,0.31,,2013-01-11 04:12:00,
2013-01-10 22:22:00,49.0,46.0,29.93,SW,214,1.0,4.0,91,0.00,,,0.31,,2013-01-11 04:22:00,
2013-01-10 22:33:00,49.0,47.0,29.93,SW,218,0.0,3.0,92,0.00,,,0.31,,2013-01-11 04:33:00,
2013-01-10 22:42:00,49.0,47.0,29.93,SW,218,0.0,3.0,92,0.00,,,0.31,,2013-01-11 04:42:00,
2013-01-10 22:52:00,49.0,47.0,29.93,SW,218,0.0,3.0,92,0.00,,,0.31,,2013-01-11 04:52:00,
2013-01-10 23:03:00,48.0,46.0,29.94,SSW,198,1.0,3.0,93,0.00,,,0.31,,2013-01-11 05:03:00,
2013-01-10 23:12:00,48.0,46.0,29.94,SSW,198,1.0,3.0,93,0.00,,,0.31,,2013-01-11 05:12:00,
2013-01-10 23:22:00,48.0,46.0,29.94,SSE,161,1.0,4.0,94,0.00,,,0.31,,2013-01-11 05:22:00,
2013-01-10 23:33:00,47.0,45.0,29.94,South,174,2.0,5.0,94,0.00,,,0.30,,2013-01-11 05:33:00,
2013-01-10 23:42:00,47.0,45.0,29.94,South,174,2.0,5.0,94,0.00,,,0.30,,2013-01-11 05:42:00,
2013-01-10 23:52:00,48.0,46.0,29.94,SSW,200,4.0,8.0,94,0.00,,,0.30,,2013-01-11 05:52:00,